Hourly Weather Gitega

Today, 5 July, Sunday

Time Temperature Precipitation Wind Pressure Humidity
00:00 +16°C° 0 mm 1 mps 622 mmHg 74%
01:00 +16°C° 0 mm 1 mps 622 mmHg 75%
02:00 +15°C° 0 mm 1 mps 622 mmHg 76%
03:00 +15°C° 0 mm 1 mps 621 mmHg 76%
04:00 +15°C° 0 mm 1 mps 621 mmHg 77%
05:00 +15°C° 0 mm 1 mps 621 mmHg 77%
06:00 +16°C° 0 mm 2 mps 622 mmHg 73%
07:00 +17°C° 0 mm 2 mps 623 mmHg 70%
08:00 +18°C° 0 mm 2 mps 624 mmHg 66%
09:00 +20°C° 0 mm 3 mps 625 mmHg 60%
10:00 +21°C° 0 mm 3 mps 625 mmHg 54%
11:00 +22°C° 0 mm 4 mps 625 mmHg 48%
12:00 +24°C° 0 mm 3 mps 625 mmHg 47%
13:00 +25°C° 0 mm 3 mps 624 mmHg 45%
14:00 +25°C° 0 mm 2 mps 624 mmHg 43%
15:00 +25°C° 0 mm 2 mps 623 mmHg 46%
16:00 +24°C° 0 mm 2 mps 623 mmHg 48%
17:00 +24°C° 0 mm 2 mps 623 mmHg 50%
18:00 +21°C° 0 mm 2 mps 623 mmHg 53%
19:00 +20°C° 0 mm 2 mps 623 mmHg 56%
20:00 +19°C° 0 mm 2 mps 623 mmHg 59%
21:00 +18°C° 0 mm 2 mps 623 mmHg 61%
22:00 +18°C° 0 mm 1 mps 623 mmHg 63%
23:00 +18°C° 0 mm 1 mps 623 mmHg 65%

Tomorrow, 6 July, Monday

Time Temperature Precipitation Wind Pressure Humidity
00:00 +16°C° 0 mm 1 mps 622 mmHg 66%
01:00 +16°C° 0 mm 1 mps 622 mmHg 67%
02:00 +15°C° 0 mm 1 mps 621 mmHg 67%
03:00 +15°C° 0 mm 1 mps 621 mmHg 68%
04:00 +15°C° 0 mm 1 mps 621 mmHg 69%
05:00 +14°C° 0 mm 1 mps 621 mmHg 70%
06:00 +16°C° 0 mm 2 mps 622 mmHg 65%
07:00 +17°C° 0 mm 3 mps 623 mmHg 61%
08:00 +19°C° 0 mm 3 mps 624 mmHg 57%
09:00 +20°C° 0 mm 4 mps 624 mmHg 52%
10:00 +21°C° 0 mm 4 mps 624 mmHg 48%
11:00 +22°C° 0 mm 4 mps 625 mmHg 44%
12:00 +24°C° 0 mm 3 mps 624 mmHg 42%
13:00 +25°C° 0 mm 3 mps 624 mmHg 40%
14:00 +26°C° 0 mm 3 mps 623 mmHg 38%
15:00 +25°C° 0 mm 3 mps 623 mmHg 40%
16:00 +25°C° 0 mm 3 mps 622 mmHg 42%
17:00 +24°C° 0 mm 2 mps 622 mmHg 44%
18:00 +21°C° 0 mm 2 mps 622 mmHg 49%
19:00 +19°C° 0 mm 2 mps 622 mmHg 54%
20:00 +17°C° 0 mm 2 mps 622 mmHg 59%
21:00 +18°C° 0 mm 1 mps 622 mmHg 60%
22:00 +18°C° 0 mm 1 mps 622 mmHg 60%
23:00 +16°C° 0 mm 1 mps 622 mmHg 61%

Day after tomorrow, 7 July, Tuesday

Time Temperature Precipitation Wind Pressure Humidity
00:00 +16°C° 0 mm 1 mps 622 mmHg 60%
01:00 +16°C° 0 mm 1 mps 622 mmHg 59%
02:00 +18°C° 0 mm 1 mps 622 mmHg 58%
03:00 +16°C° 0 mm 1 mps 622 mmHg 58%
04:00 +16°C° 0 mm 1 mps 622 mmHg 58%
05:00 +16°C° 0 mm 2 mps 622 mmHg 58%
06:00 +16°C° 0 mm 2 mps 622 mmHg 58%
07:00 +17°C° 0 mm 2 mps 623 mmHg 59%
08:00 +17°C° 0 mm 3 mps 623 mmHg 59%
09:00 +18°C° 0 mm 3 mps 624 mmHg 54%
10:00 +20°C° 0 mm 3 mps 624 mmHg 49%
11:00 +21°C° 0 mm 3 mps 625 mmHg 44%
12:00 +22°C° 0 mm 3 mps 624 mmHg 42%
13:00 +24°C° 0 mm 3 mps 624 mmHg 40%
14:00 +25°C° 0 mm 3 mps 624 mmHg 37%
15:00 +25°C° 0 mm 3 mps 623 mmHg 40%
16:00 +24°C° 0 mm 2 mps 623 mmHg 42%
17:00 +24°C° 0 mm 1 mps 622 mmHg 45%
18:00 +22°C° 0 mm 1 mps 622 mmHg 48%
19:00 +20°C° 0 mm 1 mps 622 mmHg 52%
20:00 +18°C° 0 mm 1 mps 622 mmHg 56%
21:00 +18°C° 0 mm 1 mps 622 mmHg 57%
22:00 +18°C° 0 mm 1 mps 622 mmHg 58%
23:00 +16°C° 0 mm 1 mps 622 mmHg 59%

8 July, Wednesday

Time Temperature Precipitation Wind Pressure Humidity
00:00 +16°C° 0 mm 1 mps 622 mmHg 60%
01:00 +16°C° 0 mm 1 mps 622 mmHg 60%
02:00 +15°C° 0 mm 1 mps 621 mmHg 60%
03:00 +15°C° 0 mm 1 mps 621 mmHg 61%
04:00 +15°C° 0 mm 1 mps 621 mmHg 62%
05:00 +15°C° 0 mm 1 mps 622 mmHg 62%
06:00 +16°C° 0 mm 1 mps 623 mmHg 59%
07:00 +19°C° 0 mm 1 mps 624 mmHg 56%
08:00 +20°C° 0 mm 1 mps 625 mmHg 52%
09:00 +21°C° 0 mm 2 mps 625 mmHg 49%
10:00 +22°C° 0 mm 3 mps 626 mmHg 45%
11:00 +25°C° 0 mm 4 mps 626 mmHg 42%
12:00 +26°C° 0 mm 3 mps 626 mmHg 40%
13:00 +27°C° 0 mm 3 mps 625 mmHg 38%
14:00 +27°C° 0 mm 3 mps 625 mmHg 37%
15:00 +27°C° 0 mm 3 mps 624 mmHg 39%
16:00 +26°C° 0 mm 2 mps 624 mmHg 42%
17:00 +25°C° 0 mm 2 mps 624 mmHg 45%
18:00 +24°C° 0 mm 2 mps 623 mmHg 49%
19:00 +22°C° 0 mm 1 mps 623 mmHg 53%
20:00 +20°C° 0 mm 1 mps 623 mmHg 57%
21:00 +19°C° 0 mm 1 mps 623 mmHg 59%
22:00 +19°C° 0 mm 1 mps 623 mmHg 60%
23:00 +18°C° 0 mm 1 mps 623 mmHg 61%

9 July, Thursday

Time Temperature Precipitation Wind Pressure Humidity
00:00 +18°C° 0 mm 1 mps 622 mmHg 62%
01:00 +18°C° 0 mm 1 mps 622 mmHg 63%
02:00 +16°C° 0 mm 1 mps 622 mmHg 65%
03:00 +18°C° 0 mm 1 mps 622 mmHg 63%
04:00 +18°C° 0 mm 1 mps 623 mmHg 62%
05:00 +18°C° 0 mm 1 mps 623 mmHg 61%
06:00 +19°C° 0 mm 1 mps 624 mmHg 60%
07:00 +19°C° 0 mm 2 mps 625 mmHg 58%
08:00 +20°C° 0 mm 2 mps 625 mmHg 56%
09:00 +21°C° 0 mm 3 mps 626 mmHg 53%
10:00 +24°C° 0 mm 3 mps 626 mmHg 49%
11:00 +25°C° 0 mm 4 mps 626 mmHg 46%
12:00 +26°C° 0 mm 4 mps 625 mmHg 44%
13:00 +26°C° 0 mm 3 mps 625 mmHg 41%
14:00 +27°C° 0 mm 3 mps 624 mmHg 39%
15:00 +26°C° 0 mm 3 mps 624 mmHg 41%
16:00 +26°C° 0 mm 3 mps 623 mmHg 43%
17:00 +25°C° 0 mm 2 mps 623 mmHg 45%
18:00 +24°C° 0 mm 2 mps 623 mmHg 50%
19:00 +21°C° 0 mm 2 mps 623 mmHg 54%
20:00 +20°C° 0 mm 1 mps 623 mmHg 58%
21:00 +20°C° 0 mm 1 mps 623 mmHg 58%
22:00 +20°C° 0 mm 1 mps 623 mmHg 58%
23:00 +20°C° 0 mm 1 mps 623 mmHg 58%

10 July, Friday

Time Temperature Precipitation Wind Pressure Humidity
00:00 +20°C° 0 mm 1 mps 623 mmHg 60%
01:00 +18°C° 0 mm 2 mps 623 mmHg 62%
02:00 +18°C° 0 mm 2 mps 622 mmHg 64%
03:00 +17°C° 0 mm 2 mps 622 mmHg 69%
04:00 +18°C° 0 mm 1 mps 622 mmHg 73%
05:00 +16°C° 0 mm 1 mps 622 mmHg 77%
06:00 +17°C° 0 mm 2 mps 623 mmHg 73%
07:00 +18°C° 0 mm 3 mps 624 mmHg 69%
08:00 +20°C° 0 mm 4 mps 625 mmHg 65%
09:00 +21°C° 0.1 mm 4 mps 625 mmHg 61%
10:00 +22°C° 0.1 mm 4 mps 625 mmHg 56%
11:00 +25°C° 0.1 mm 4 mps 625 mmHg 52%
12:00 +25°C° 0.1 mm 4 mps 625 mmHg 49%
13:00 +26°C° 0.1 mm 4 mps 625 mmHg 47%
14:00 +27°C° 0.1 mm 4 mps 624 mmHg 44%
15:00 +26°C° 0 mm 4 mps 624 mmHg 46%
16:00 +25°C° 0 mm 3 mps 623 mmHg 49%
17:00 +24°C° 0 mm 3 mps 623 mmHg 51%
18:00 +23°C° 0 mm 2 mps 623 mmHg 55%
19:00 +20°C° 0 mm 2 mps 623 mmHg 59%
20:00 +20°C° 0 mm 1 mps 623 mmHg 63%
21:00 +20°C° 0 mm 1 mps 623 mmHg 66%
22:00 +19°C° 0 mm 1 mps 623 mmHg 68%
23:00 +19°C° 0 mm 1 mps 624 mmHg 70%
Show more